This is the latest recevied weather packets stored in our database for station/object eb1ayw-13. If no packets are shown the sender has not sent any weather packets the latest 10 day(s).
| Time | Temp. | Humidity | Pressure | Rain* | Wind** | Luminosity | Snow |
|---|---|---|---|---|---|---|---|
| 1777722058 | 40° C | 20% | 1005 hPa | - | - | - | - |
| 1777721458 | 42.22° C | 17% | 1004.4 hPa | - | - | - | - |
| 1777720858 | 42.78° C | 19% | 1004.3 hPa | - | - | - | - |
| 1777720258 | 45° C | 19% | 1003.9 hPa | - | - | - | - |
| 1777719657 | 46.11° C | 16% | 1003.6 hPa | - | - | - | - |
| 1777719058 | 42.22° C | 20% | 1004.7 hPa | - | - | - | - |
| 1777718457 | 42.22° C | 20% | 1004.5 hPa | - | - | - | - |
| 1777717857 | 45° C | 17% | 1004.1 hPa | - | - | - | - |
| 1777717257 | 43.89° C | 19% | 1004.3 hPa | - | - | - | - |
| 1777716657 | 47.22° C | 17% | 1003.8 hPa | - | - | - | - |
| 1777716057 | 41.67° C | 21% | 1005.3 hPa | - | - | - | - |
| 1777715457 | 44.44° C | 18% | 1004.7 hPa | - | - | - | - |
| 1777714857 | 42.78° C | 19% | 1005.2 hPa | - | - | - | - |
| 1777714257 | 45° C | 18% | 1004.7 hPa | - | - | - | - |
| 1777713657 | 46.11° C | 18% | 1004.6 hPa | - | - | - | - |
| 1777713057 | 43.89° C | 19% | 1005.2 hPa | - | - | - | - |
| 1777712457 | 46.11° C | 17% | 1004.6 hPa | - | - | - | - |
| 1777711857 | 44.44° C | 19% | 1005 hPa | - | - | - | - |
| 1777711258 | 44.44° C | 19% | 1005.1 hPa | - | - | - | - |
| 1777710657 | 45° C | 18% | 1005 hPa | - | - | - | - |
| 1777710057 | 42.78° C | 19% | 1005.6 hPa | - | - | - | - |
| 1777709457 | 43.89° C | 19% | 1005.3 hPa | - | - | - | - |
| 1777708857 | 39.44° C | 22% | 1006.4 hPa | - | - | - | - |
| 1777708258 | 43.33° C | 19% | 1005.4 hPa | - | - | - | - |
| 1777707657 | 46.11° C | 17% | 1004.9 hPa | - | - | - | - |
* Rain since midnight (hover to see other rain measurements)
** Current wind speed in m/s (hover to see current wind gust speed)